Fort Leonard Wood, MO

9:36 AM CDT on May 24, 2018 (GMT -0500)
Waynesville Regional At Forney Field

Weather History for KTBN - January, 2014

Change the Weather History Date:

Wednesday, January 22, 2014

  Actual Average Record
Temperature  
Mean Temperature 26 °F -  
Max Temperature 33 °F 39 °F 64 °F (2009)
Min Temperature 18 °F 25 °F 14 °F (2003)
Degree Days  
Heating Degree Days 39    
Moisture  
Dew Point 8 °F    
Average Humidity 48    
Maximum Humidity 61    
Minimum Humidity 38    
Precipitation  
Precipitation 0.00 in - - ()
Sea Level Pressure  
Sea Level Pressure 30.17 in    
Wind  
Wind Speed 7 mph (WNW)    
Max Wind Speed 20 mph    
Max Gust Speed 30 mph    
Visibility 10 miles    
Events      
Averages and records for this station are not official NWS values.
T = Trace of Precipitation, MM = Missing Value Source: NWS Daily Summary

Daily Weather History Graph

Daily Weather History Graph

Search for Another Location

Airport or City:

Astronomy

Jan. 22, 2014 Rise Set
Actual Time 7:19 AM CST 5:21 PM CST
Civil Twilight 6:51 AM CST 5:49 PM CST
Nautical Twilight 6:19 AM CST 6:21 PM CST
Astronomical Twilight 5:48 AM CST 6:52 PM CST
Moon 11:46 PM CST (1/22) 10:28 AM CST (1/22)
Length of Visible Light 10h 58m
Length of Day
10h 01m
Waning Gibbous, 65% of the Moon is Illuminated
Jan 22
Waning Gibbous
Jan 23
Last Quarter
Jan 30
New
Feb 6
First Quarter
Feb 14
Full

Hourly Weather History & Observations

Time (CST) Temp. Windchill Dew Point Humidity Pressure Visibility Wind Dir Wind Speed Gust Speed Precip Events Conditions
12:58 AM 19.6 °F - 2.8 °F 48% 30.18 in 10.0 mi SSE 2.3 mph - N/A   Overcast
1:58 AM 19.9 °F 13.4 °F 4.1 °F 50% 30.17 in 10.0 mi SSE 4.6 mph - N/A   Overcast
2:58 AM 20.5 °F 14.0 °F 3.9 °F 49% 30.15 in 10.0 mi South 4.6 mph - N/A   Overcast
3:58 AM 21.0 °F 12.4 °F 2.8 °F 45% 30.12 in 10.0 mi South 6.9 mph - N/A   Overcast
4:58 AM 19.6 °F 14.5 °F 1.6 °F 46% 30.12 in 10.0 mi Variable 3.5 mph - N/A   Partly Cloudy
5:58 AM 19.2 °F 11.3 °F 2.1 °F 47% 30.12 in 10.0 mi SSW 5.8 mph - N/A   Mostly Cloudy
6:58 AM 20.3 °F 12.5 °F 2.8 °F 47% 30.12 in 10.0 mi SW 5.8 mph - N/A   Overcast
7:58 AM 22.1 °F 15.9 °F 4.1 °F 46% 30.12 in 10.0 mi Variable 4.6 mph - N/A   Overcast
8:58 AM 24.4 °F 17.5 °F 7.9 °F 49% 30.14 in 10.0 mi West 5.8 mph - N/A   Overcast
9:43 AM 28.4 °F 17.5 °F 12.2 °F 51% 30.08 in 10.0 mi WNW 13.8 mph 20.7 mph N/A   Scattered Clouds
9:58 AM 27.7 °F 18.2 °F 13.1 °F 54% 30.15 in 10.0 mi WNW 10.4 mph 19.6 mph N/A   Partly Cloudy
10:58 AM 30.4 °F 19.5 °F 14.9 °F 53% 30.15 in 10.0 mi NW 15.0 mph 23.0 mph N/A   Partly Cloudy
11:58 AM 32.7 °F 23.4 °F 15.1 °F 48% 30.13 in 10.0 mi NW 12.7 mph 24.2 mph N/A   Mostly Cloudy
12:58 PM 31.8 °F 22.3 °F 13.8 °F 47% 30.13 in 10.0 mi WNW 12.7 mph 20.7 mph N/A   Mostly Cloudy
1:58 PM 33.4 °F 24.3 °F 15.1 °F 47% 30.12 in 10.0 mi NNW 12.7 mph 21.9 mph N/A   Overcast
2:58 PM 32.7 °F 22.5 °F 13.3 °F 45% 30.13 in 10.0 mi NW 15.0 mph 25.3 mph N/A   Scattered Clouds
3:58 PM 33.1 °F 28.7 °F 11.7 °F 41% 30.13 in 10.0 mi Variable 4.6 mph - N/A   Clear
4:58 PM 32.0 °F 27.5 °F 8.6 °F 38% 30.15 in 10.0 mi WNW 4.6 mph - N/A   Clear
5:58 PM 29.3 °F 24.3 °F 9.1 °F 43% 30.19 in 10.0 mi WNW 4.6 mph - N/A   Clear
6:58 PM 28.4 °F 22.2 °F 8.2 °F 43% 30.20 in 10.0 mi NW 5.8 mph - N/A   Clear
7:58 PM 27.7 °F 20.4 °F 7.7 °F 43% 30.21 in 10.0 mi NNW 6.9 mph - N/A   Overcast
8:58 PM 27.1 °F 17.5 °F 7.7 °F 44% 30.24 in 10.0 mi NNW 10.4 mph - N/A   Overcast
9:58 PM 25.3 °F 16.7 °F 10.6 °F 54% 30.28 in 10.0 mi NNW 8.1 mph - N/A   Scattered Clouds
10:58 PM 23.2 °F 10.3 °F 11.5 °F 61% 30.33 in 10.0 mi North 15.0 mph 21.9 mph N/A   Partly Cloudy
11:58 PM 18.7 °F 2.7 °F 3.4 °F 51% 30.36 in 10.0 mi NNW 19.6 mph 29.9 mph N/A   Mostly Cloudy